Location: Niagara
(43.2500°N, 79.0670°W)
Time: 10:51:05
(UTC-04:00)

Envisat - Pass Details

Date: 08 October 2017
Orbit: 764 x 766 km, 98.2° (Epoch: 17 October)

Event Time Altitude Azimuth Distance (km) Brightness Sun altitude
Exits shadow 22:21:38 18° 271° (W) 1,831 5.4 -38.7°
Drops below altitude 10° 22:24:55 10° 311° (NW) 2,309 6.2 -39.2°
Sets 22:28:00 0° 331° (NNW) 3,240 7.0 -39.7°
